Tracking 22100 objects as of 19-Jan-2021
HD Live streaming from Space Station
objects crossing your sky now

STARLINK-1167

Track STARLINK-1167 now!
10-day predictions
STARLINK-1167 is classified as:


NORAD ID: 45071
Int'l Code: 2020-006AD
Perigee: 554.7 km
Apogee: 556.3 km
Inclination: 53.0 °
Period: 95.6 minutes
Semi major axis: 6926 km
RCS: Unknown
Launch date: January 29, 2020
Source: United States (US)
Launch site: AIR FORCE EASTERN TEST RANGE (AFETR)
aabbcc
Your satellite tracking list
Your tracking list is empty




NASA's NSSDC Master Catalog

Two Line Element Set (TLE):
1 45071U 20006AD  21018.76443166  .00048045  00000-0  32544-2 0  9995
2 45071  53.0019  47.9694 0001148  98.0373 262.0746 15.06032550 53990
Source of the keplerian elements: AFSPC